GFSFLT1_850_dewp_093.txt.gz
Dewpoint
-8 -8 -9 -9 -9 -10 -8 -10 -8 -0 5 8 9 12 10 8 7 5 9 10 11 11 10 9 11 11 11 10 9 10 9 9
-2 -4 -8 -9 -8 -9 -10 -7 -9 -4 3 4 10 10 11 10 10 6 8 11 12 11 10 8 10 12 11 11 10 10 10 10
3 1 -2 -5 -6 -7 -9 -7 -7 -7 -6 0 6 7 11 11 8 8 10 12 12 11 11 10 11 11 12 12 11 11 11 10
5 5 1 -4 -6 -8 -8 -8 -5 -6 -4 5 8 10 10 10 10 9 13 12 12 10 9 10 11 11 11 11 11 11 10 10
5 7 6 2 -2 -5 -8 -7 -5 -3 0 -1 4 7 7 7 9 8 8 10 10 11 10 9 10 11 11 11 11 10 10 10
5 7 8 6 5 -2 -6 -7 -4 1 -3 -1 4 9 7 7 8 6 7 9 9 11 9 9 10 11 11 10 11 11 10 10
5 7 8 8 9 8 0 1 1 2 3 2 8 9 7 7 9 7 8 7 8 10 9 8 10 11 10 11 11 11 11 10
4 6 7 7 8 12 12 10 7 6 10 9 10 9 9 8 9 6 6 6 7 6 7 10 10 10 10 10 11 11 11 10
3 5 6 6 8 10 12 14 12 12 12 11 11 9 9 9 9 6 5 4 3 6 9 10 10 10 10 10 9 10 10 10
1 3 4 5 7 9 11 13 12 12 10 10 8 8 8 10 8 8 6 3 6 9 9 9 9 10 9 9 9 10 10 10
1 2 3 5 6 8 11 13 10 11 7 8 8 7 9 10 9 7 6 7 8 8 9 9 10 10 11 10 10 9 10 9
0 1 2 3 5 8 10 11 11 8 6 7 8 7 10 10 8 8 7 8 8 8 8 9 9 9 9 9 9 9 9 10
-1 0 1 2 4 6 8 10 9 9 9 9 9 8 10 9 10 9 8 8 8 8 8 9 10 9 8 9 8 9 9 10
-2 -1 1 1 2 4 5 8 9 9 8 9 9 10 10 9 9 9 9 8 8 8 8 9 9 9 9 9 9 9 9 9
-3 -2 -1 1 2 3 4 6 8 8 9 8 10 10 10 9 9 9 9 9 8 8 7 7 8 9 9 9 9 9 9 9
-3 -3 -2 -1 1 2 3 4 6 8 8 8 9 10 10 9 9 8 8 8 7 7 7 7 8 9 9 9 9 9 9 9
-3 -3 -3 -2 -1 0 1 2 3 4 5 7 8 8 10 9 9 9 8 8 8 7 7 6 8 8 8 8 9 9 9 9
-4 -4 -3 -3 -2 -1 -0 1 2 3 3 4 6 7 9 10 9 9 9 9 8 7 6 6 8 8 8 8 8 9 9 9
-4 -4 -3 -3 -2 -2 -0 0 1 2 2 2 2 2 4 8 8 8 8 8 8 8 7 7 8 8 8 8 8 8 8 8

GFSFLT1_850_dewp_096.txt.gz
Dewpoint
-3 -4 -3 -3 -7 -7 -7 -8 -9 -10 -9 7 7 7 8 10 9 7 5 7 8 9 10 11 11 11 11 11 11 10 10 10
4 2 -2 -2 -2 -6 -7 -6 -9 -9 -5 6 7 9 9 9 10 8 7 8 9 9 10 10 12 11 11 12 11 10 10 10
1 4 4 2 0 -3 -3 -5 -7 -9 -8 -6 6 3 8 7 11 11 7 7 10 10 10 10 11 10 12 12 11 11 11 10
4 3 5 5 5 1 -2 -6 -7 -8 -7 -4 -0 5 9 8 8 9 10 8 8 10 11 11 10 10 10 11 11 11 11 11
4 5 6 6 7 5 1 -4 -7 -4 -3 -1 -1 -1 4 2 5 8 10 10 8 9 12 11 10 9 10 10 11 10 10 11
4 5 5 6 7 7 5 2 -5 0 -0 -0 -2 -1 -0 4 8 7 3 8 10 11 12 10 9 9 10 10 11 10 10 10
3 4 4 6 7 8 8 8 -1 2 5 2 1 -0 4 9 8 8 6 9 10 12 12 10 10 8 9 10 11 9 10 10
3 3 3 4 7 7 9 11 10 10 9 8 4 7 7 9 8 6 9 11 10 13 12 12 9 8 9 9 10 10 10 10
3 3 2 3 6 7 8 10 12 13 13 12 12 12 11 10 9 8 7 8 6 8 10 10 9 8 9 10 9 9 10 9
1 3 3 3 4 6 7 9 11 12 12 12 12 13 12 10 9 10 10 8 5 6 8 7 8 9 9 9 9 9 9 9
1 1 1 2 3 5 7 9 11 12 12 12 12 12 12 10 8 10 9 6 6 5 6 9 8 9 9 9 9 9 9 9
-1 -0 1 2 3 4 6 8 10 11 12 9 10 11 10 9 8 9 8 7 6 8 9 8 9 9 9 9 9 9 9 9
-1 -1 -0 2 2 3 4 7 8 10 11 10 8 6 8 6 10 10 9 7 8 8 8 8 8 9 10 9 9 9 9 9
-1 -2 -1 -0 1 2 2 4 7 9 9 10 10 8 8 8 11 8 8 8 9 9 9 9 9 9 9 9 9 9 9 9
-2 -2 -2 -1 -1 0 1 3 5 7 8 9 9 10 9 11 10 9 9 9 9 9 9 9 9 9 7 9 9 9 9 9
-3 -2 -2 -2 -1 -1 1 1 2 4 6 8 9 9 9 10 10 9 9 9 8 8 7 7 7 6 7 8 8 8 9 9
-3 -3 -3 -2 -2 -2 -1 1 2 3 4 5 6 8 8 8 10 9 9 10 9 8 8 7 6 6 8 8 8 9 9 8
-4 -4 -3 -3 -3 -2 -2 -1 1 2 3 3 3 5 6 6 7 9 10 9 9 8 7 6 6 6 6 8 8 8 8 9
-5 -5 -4 -3 -3 -2 -2 -1 -1 0 1 2 3 3 3 5 1 6 8 8 8 8 7 6 6 5 7 8 8 8 8 8

GFSFLT1_850_dewp_102.txt.gz
Dewpoint
3 4 4 4 4 1 -0 -2 -4 -5 -5 4 10 11 1 8 10 10 8 6 3 6 6 4 6 10 10 10 12 12 13 12
2 3 4 4 5 5 5 1 1 1 2 3 8 11 8 -4 9 12 9 8 6 5 6 5 7 9 9 9 10 12 12 12
3 3 4 4 5 5 5 5 4 4 6 6 6 10 11 11 11 12 6 10 7 7 7 6 7 9 10 11 11 11 12 11
3 3 3 4 4 4 5 5 5 5 6 7 5 10 11 12 12 9 -2 10 9 8 8 7 9 10 11 12 11 12 11 11
3 2 3 3 3 4 5 6 6 6 7 7 8 7 10 10 11 5 4 8 11 9 9 9 9 10 11 11 12 11 11 11
2 2 2 2 3 4 5 6 6 7 7 7 7 8 10 10 11 12 13 11 8 10 8 5 9 8 9 10 11 11 10 11
1 1 1 2 2 3 5 6 6 7 7 8 8 9 10 11 11 12 12 13 10 8 8 9 9 6 3 6 8 11 10 9
1 1 1 1 2 2 4 6 6 7 7 8 9 9 9 12 11 12 12 13 10 9 7 8 8 7 3 4 6 11 10 9
0 -0 0 1 1 1 4 5 6 7 7 9 10 10 10 12 12 12 12 13 13 12 9 6 9 5 4 5 9 12 10 8
-0 -0 -0 1 1 2 3 5 5 6 7 9 11 11 12 12 11 11 11 12 12 11 9 9 5 8 6 8 10 11 9 9
-1 -1 -0 0 -0 1 3 4 3 5 7 9 11 11 11 11 11 11 11 11 11 11 9 6 7 9 11 10 11 10 9 10
-1 -1 -1 -0 -1 1 2 4 4 5 7 9 10 10 10 11 11 11 11 11 11 10 7 9 10 11 11 10 11 11 8 9
-1 -1 -1 -1 -1 0 1 2 3 4 5 7 9 10 10 11 11 11 11 11 11 10 8 6 6 10 11 11 11 10 8 10
-2 -2 -2 -2 -2 -1 1 1 2 3 4 6 8 9 10 10 10 10 11 10 10 8 6 4 4 10 10 9 9 9 10 10
-2 -2 -2 -2 -3 -3 -1 1 0 1 1 4 6 8 9 10 10 10 10 9 6 7 6 4 7 8 9 10 9 9 9 9
-3 -3 -3 -3 -3 -2 -2 -1 -1 -1 1 4 5 6 8 7 9 10 10 10 10 9 8 9 8 8 9 8 9 9 9 9
-4 -4 -4 -4 -4 -3 -3 -2 -2 -1 -0 -0 1 3 5 6 7 9 9 9 9 10 10 8 8 8 8 9 9 9 8 8
-5 -5 -5 -5 -4 -4 -4 -3 -3 -2 -1 -1 0 1 1 3 4 5 4 7 7 8 9 9 8 8 9 9 8 8 8 8
-6 -6 -6 -5 -4 -4 -4 -4 -3 -3 -2 -2 -1 -0 1 1 1 2 2 2 4 4 6 8 9 8 7 8 8 8 8 8

GFSFLT1_850_dewp_105.txt.gz
Dewpoint
1 2 3 3 4 5 5 5 5 7 7 3 -1 6 10 11 12 13 14 13 10 10 9 5 7 9 12 11 13 12 13 12
1 3 3 4 4 5 5 5 6 6 6 6 6 4 6 10 11 11 13 14 14 13 13 12 7 6 11 10 13 14 12 12
1 2 3 4 4 5 5 5 6 6 6 6 7 7 5 7 9 11 12 13 14 13 13 13 7 6 11 11 13 12 13 12
1 2 2 3 3 4 5 5 5 6 6 6 6 7 6 5 10 11 11 13 12 10 9 13 7 6 8 8 12 10 12 11
1 2 2 2 3 3 4 4 5 5 6 6 6 7 7 3 5 10 11 12 13 13 11 13 11 8 8 7 9 12 12 10
2 2 2 2 2 3 4 4 4 4 4 6 6 6 7 8 6 8 9 11 12 13 13 13 10 11 9 10 12 12 11 11
2 1 1 1 2 3 3 3 3 3 6 7 7 7 7 8 7 9 10 11 11 12 12 13 11 10 9 8 4 11 11 10
1 0 0 1 1 2 3 2 2 4 6 6 6 6 7 7 9 9 10 11 11 11 12 13 12 10 8 2 -0 10 12 11
0 0 0 1 1 2 1 1 3 4 5 6 7 8 8 8 8 9 11 12 10 10 12 12 12 12 9 6 3 11 11 11
0 -0 0 0 1 1 0 0 2 4 5 7 7 9 9 10 10 9 11 12 11 11 12 12 12 13 12 11 11 10 10 11
-1 -1 -0 -0 0 1 -0 -0 1 3 5 6 7 10 11 12 11 10 12 11 12 11 11 12 12 11 10 10 9 10 11 11
-1 -1 -1 -0 -0 -0 -1 -1 1 2 4 6 8 9 10 11 11 11 11 11 11 11 12 12 11 11 10 6 4 8 11 12
-1 -1 -1 -1 -1 -1 -1 -1 0 1 2 5 6 7 9 10 10 11 11 11 10 11 11 11 11 11 8 6 7 6 9 11
-2 -2 -2 -2 -2 -1 -2 -1 0 1 2 3 5 6 7 9 10 11 11 10 11 11 11 11 10 8 7 6 5 6 9 10
-2 -2 -2 -2 -2 -2 -2 -3 -1 0 1 1 4 4 4 7 8 9 11 11 11 10 11 11 10 10 9 7 9 10 10 9
-3 -3 -3 -3 -3 -3 -3 -4 -2 -1 0 0 1 0 2 4 6 7 9 10 9 10 10 10 10 10 9 5 6 8 9 10
-4 -4 -3 -4 -4 -4 -4 -5 -4 -2 -1 -1 -1 0 2 3 4 5 7 7 9 9 9 9 10 10 9 6 7 10 10 9
-4 -4 -5 -5 -6 -5 -5 -5 -4 -3 -2 -2 -2 -1 0 1 1 2 5 4 6 8 8 9 9 9 10 10 9 9 9 9
-6 -6 -6 -6 -6 -6 -6 -6 -4 -3 -3 -3 -3 -2 -2 -1 -1 -0 0 1 1 2 3 4 5 9 9 9 9 9 9 8

GFSFLT1_850_dewp_108.txt.gz
Dewpoint
2 2 3 4 4 5 5 6 6 6 4 3 2 -2 1 10 12 14 13 13 13 12 12 13 11 11 10 13 12 11 12 12
1 3 4 4 5 5 5 5 4 4 4 6 6 6 7 5 8 11 13 13 13 14 13 13 14 14 10 11 10 11 12 12
2 2 3 4 4 4 4 3 2 3 4 5 5 5 5 6 5 9 11 10 12 12 14 13 13 14 12 10 7 10 12 11
1 2 2 3 3 4 4 4 3 4 5 5 6 6 5 5 2 5 10 12 10 12 13 13 13 11 10 12 12 9 9 12
1 2 2 2 3 3 4 4 3 4 4 5 5 6 6 5 7 7 4 11 11 10 9 11 13 11 12 10 12 12 11 11
1 1 1 2 2 3 3 2 2 3 4 5 6 6 6 6 6 5 7 8 11 10 11 10 12 11 10 4 12 12 12 11
1 0 1 1 2 2 2 2 3 3 4 5 6 6 7 7 7 7 5 6 7 11 8 10 12 12 11 10 7 9 12 10
0 0 1 1 1 1 1 1 2 2 3 4 5 6 6 6 7 7 7 5 8 10 9 9 12 12 11 10 9 12 10 8
0 0 1 1 1 1 1 1 1 2 2 4 5 5 5 6 7 8 8 7 8 7 8 10 10 10 12 12 11 11 7 5
-1 -1 -0 0 0 0 0 0 1 1 2 3 5 5 5 6 8 8 9 8 6 11 11 11 11 10 10 12 11 10 8 4
-2 -1 -1 -0 -0 -0 -0 -1 -0 1 1 2 3 5 6 7 9 10 11 9 10 10 10 11 11 10 10 11 10 10 8 9
-2 -1 -1 -1 -1 -1 -1 -2 -1 0 1 1 3 4 6 7 8 10 11 11 10 10 11 11 12 11 11 11 11 12 11 10
-2 -2 -2 -2 -2 -2 -2 -2 -1 -1 0 1 2 3 5 6 8 9 9 9 8 10 11 10 12 12 11 11 11 11 10 9
-3 -2 -2 -2 -2 -3 -3 -3 -2 -1 -0 0 1 2 3 5 7 8 9 9 7 9 9 9 9 9 11 11 11 9 8 5
-3 -3 -3 -3 -3 -3 -4 -4 -3 -2 -1 -1 -0 1 2 3 4 6 6 8 9 10 11 10 7 10 11 11 11 7 6 7
-3 -3 -4 -4 -4 -4 -4 -4 -3 -3 -2 -2 -2 -0 1 2 2 3 5 6 7 8 10 10 10 10 10 10 10 9 7 6
-4 -4 -4 -5 -5 -5 -5 -5 -4 -3 -3 -3 -2 -1 -0 0 0 1 2 4 6 4 7 10 9 10 10 10 9 9 10 7
-5 -5 -5 -6 -6 -6 -6 -6 -5 -4 -4 -4 -3 -3 -2 -2 -1 -0 0 1 2 4 4 6 8 8 10 10 10 10 10 10
-6 -6 -6 -6 -6 -6 -6 -5 -5 -5 -5 -5 -4 -4 -4 -3 -2 -2 -2 -2 -0 0 1 1 2 3 7 8 9 10 9 9

GFSFLT1_850_dewp_114.txt.gz
Dewpoint
4 4 4 4 3 2 1 1 1 -1 -4 -4 -4 -2 -2 4 9 12 13 13 12 12 13 13 12 12 12 12 14 14 13 13
5 5 5 4 4 3 1 -2 -5 -4 -3 -3 -4 -4 -3 -3 -2 2 8 11 12 12 12 13 13 13 12 12 11 13 13 13
4 4 3 3 1 -0 -2 -3 -3 -2 -2 -1 -1 -1 -2 -1 -1 -2 -2 2 7 10 11 12 12 13 13 12 12 11 11 11
3 3 3 2 -0 -1 -2 -2 -2 -3 -3 -1 1 1 2 2 2 2 2 1 -0 3 7 9 10 12 12 12 11 11 11 10
3 2 2 1 0 -1 -2 -3 -3 -3 -2 -1 2 3 2 2 3 3 3 3 3 3 2 5 8 8 10 11 12 10 10 11
2 1 1 0 -1 -5 -4 -4 -8 -5 -2 -1 0 2 3 3 4 5 5 5 6 5 5 3 4 7 8 11 11 11 10 11
1 0 -0 -2 -3 -5 -3 -3 -6 -3 -1 0 1 2 3 3 4 5 6 6 7 7 6 6 5 4 6 9 12 12 11 9
0 -0 -1 -2 -3 -3 -3 -4 -3 -2 -1 0 1 2 2 3 4 5 6 6 7 7 8 8 7 5 4 8 11 11 11 10
-1 -1 -1 -2 -3 -3 -2 -2 -2 -2 -1 0 1 2 2 3 3 4 5 6 7 7 7 8 9 9 6 6 9 10 11 10
-1 -1 -1 -2 -3 -3 -2 -2 -2 -1 -1 0 1 2 2 3 3 3 4 5 6 6 7 7 9 9 8 6 8 8 10 9
-1 -2 -2 -3 -3 -3 -3 -2 -2 -1 -1 -0 0 1 1 2 3 3 3 4 5 6 7 8 8 9 9 6 7 6 6 6
-3 -3 -3 -3 -3 -3 -3 -2 -2 -1 -1 -1 -0 0 0 1 2 2 3 3 4 6 6 7 8 8 10 7 8 6 6 7
-4 -4 -4 -4 -4 -3 -3 -3 -2 -2 -2 -2 -2 -1 -0 0 1 1 2 3 4 5 6 7 8 9 10 10 7 7 8 8
-4 -4 -5 -5 -4 -4 -4 -4 -3 -3 -2 -2 -2 -2 -2 -1 -0 0 1 2 3 4 5 6 7 8 8 8 9 8 6 7
-4 -5 -5 -5 -5 -5 -5 -4 -4 -4 -3 -3 -3 -3 -3 -3 -2 -1 -0 0 1 2 3 4 5 6 8 8 8 8 8 9
-5 -6 -6 -6 -6 -5 -5 -4 -4 -4 -4 -4 -4 -4 -4 -3 -3 -3 -2 -1 -1 -0 1 2 4 4 6 8 8 7 5 6
-6 -6 -6 -6 -6 -5 -5 -5 -5 -4 -5 -4 -4 -4 -4 -4 -4 -4 -3 -3 -2 -2 -1 -0 1 2 3 6 7 7 7 8
-6 -6 -7 -6 -6 -6 -6 -5 -5 -5 -5 -5 -4 -4 -4 -3 -3 -4 -4 -4 -4 -4 -3 -3 -2 -1 1 3 4 7 8 8
-7 -7 -7 -7 -7 -6 -6 -6 -5 -5 -5 -5 -5 -5 -4 -4 -3 -4 -4 -5 -5 -5 -5 -5 -4 -3 -1 0 1 3 4 6

GFSFLT1_850_dewp_117.txt.gz
Dewpoint
3 5 6 6 6 5 4 4 3 2 1 -1 -3 -3 -2 0 4 7 8 10 11 11 11 13 13 13 13 12 11 10 6 11
6 5 5 5 4 3 2 1 -0 -3 -5 -6 -6 -7 -5 -4 -3 -3 -1 2 7 10 11 11 12 11 12 13 12 10 8 13
5 4 4 3 2 1 -1 -3 -4 -4 -5 -5 -6 -6 -5 -4 -4 -2 -1 -1 -1 -1 5 9 10 11 12 13 13 13 13 12
4 3 2 1 -0 -1 -2 -2 -3 -4 -5 -5 -4 -4 -2 -2 -1 -1 0 1 2 1 1 0 2 7 9 10 13 13 13 12
2 1 0 -1 -2 -2 -3 -5 -8 -12 -13 -14 -12 -11 -7 -4 -3 -2 -2 0 3 4 4 4 3 1 2 6 9 11 12 12
1 -0 -1 -2 -2 -2 -3 -3 -7 -7 -8 -9 -8 -6 -4 -2 -1 0 0 1 4 5 6 6 5 5 4 3 4 8 10 11
0 0 -1 -1 -3 -2 -3 -2 -4 -4 -4 -4 -3 -4 -2 -0 0 1 2 2 3 5 6 7 7 7 7 6 5 5 8 10
-1 -1 -2 -2 -2 -2 -2 -2 -2 -2 -2 -2 -2 -1 0 1 2 2 3 3 3 4 6 6 7 7 7 8 7 5 7 10
-0 -1 -2 -3 -3 -3 -2 -2 -2 -2 -2 -1 -0 0 1 1 2 3 3 3 3 4 5 6 6 6 7 8 9 8 6 10
-0 -0 -1 -2 -2 -3 -2 -2 -2 -2 -1 -1 -0 0 1 1 2 2 2 3 3 3 4 5 6 6 7 7 8 9 8 8
-2 -2 -2 -1 -2 -2 -2 -2 -2 -2 -2 -1 -1 -1 -0 0 1 1 2 2 3 3 3 4 5 6 7 7 8 9 9 8
-3 -3 -4 -4 -3 -3 -3 -3 -3 -2 -2 -2 -2 -2 -1 -1 -0 0 1 1 2 3 3 4 5 5 6 7 8 9 9 7
-4 -4 -5 -5 -4 -4 -4 -3 -3 -3 -3 -3 -2 -2 -2 -2 -1 -1 0 1 1 1 2 3 4 5 6 7 8 9 9 8
-5 -5 -5 -5 -5 -5 -4 -4 -4 -3 -3 -3 -3 -3 -3 -3 -3 -2 -1 -0 -0 0 1 2 3 4 5 6 7 9 10 10
-5 -6 -5 -5 -5 -5 -4 -4 -4 -4 -4 -4 -3 -4 -4 -3 -3 -3 -2 -2 -1 -1 -1 -0 1 2 4 5 6 8 9 9
-6 -6 -6 -6 -6 -6 -5 -5 -4 -4 -4 -4 -4 -3 -3 -3 -4 -4 -3 -3 -3 -3 -2 -2 -2 -1 -0 2 5 6 7 8
-6 -7 -7 -7 -6 -6 -5 -5 -5 -4 -4 -4 -4 -4 -3 -4 -3 -3 -4 -4 -4 -3 -3 -3 -3 -3 -2 -0 2 2 3 6
-6 -6 -6 -7 -7 -6 -6 -6 -5 -5 -5 -6 -7 -6 -6 -5 -5 -4 -4 -4 -4 -3 -3 -3 -4 -4 -3 -1 -0 -0 -0 1
-6 -7 -6 -7 -6 -7 -6 -6 -6 -7 -7 -9 -11 -11 -12 -11 -8 -7 -6 -6 -5 -5 -4 -4 -4 -4 -3 -3 -2 -2 -2 -2